Regional Weather Roundup
Issued by NWS Charleston, SC

Current Version | Previous Version | Text Only | Print | Product List | Glossary Off
Versions: 1 2 3 4 5 6 7 8 9 10 11 12 13 14 15 16 17 18 19 20 21 22 23 24 25 26 27 28 29 30 31 32 33 34 35 36 37 38 39 40 41 42 43 44 45 46 47 48 49 50

000
ASUS42 KCHS 270112
RWRCHS

REGIONAL WEATHER ROUNDUP
NATIONAL WEATHER SERVICE CHARLESTON SC
900 PM EDT SUN APR 26 2015

NOTE: "FAIR" INDICATES FEW OR NO CLOUDS BELOW 12,000 FEET WITH NO
SIGNIFICANT WEATHER AND/OR OBSTRUCTIONS TO VISIBILITY.

NOT ALL STATIONS ARE QUALITY CONTROLLED BY THE NATIONAL
WEATHER SERVICE. USE DATA WITH CAUTION...ESPECIALLY
DEWPOINT OBSERVATIONS.

SCZ027-030-031-034>040-042>050-270200-
...SOUTHEAST SOUTH CAROLINA...

CITY           SKY/WX    TMP DP  RH WIND       PRES   REMARKS
N CHARLESTON   MOCLDY    69  61  75 NE9       29.67R
WATERFRONT PRK   N/A     70 N/A N/A NE13G18     N/A
MOUNT PLEASANT CLOUDY    66  61  82 MISG      29.68R
PINOPOLIS      NOT AVBL
MONCKS CORNER  CLOUDY    66  57  72 NE10      29.69R
SUMMERVILLE    FAIR      64  59  82 N12G21    29.69R
BEAUFORT MCAS  MOCLDY    75  62  64 SW5       29.64R
BEAUFORT ARPT  NOT AVBL
HILTON HEAD IS MOCLDY    75  59  57 SW5       29.65S
WALTERBORO     MOCLDY    68  61  77 N8        29.67R
ALLENDALE      FAIR      73  64  73 NE5G14    29.64R

...SOUTHERN MIDLANDS AND PEE DEE...

CITY           SKY/WX    TMP DP  RH WIND       PRES   REMARKS
GEORGETOWN     NOT AVBL
KINGSTREE      NOT AVBL
ORANGEBURG     MOCLDY    62  54  74 NE13      29.71R
BARNWELL       FAIR      66  61  82 NE14G23   29.68R
AIKEN          FAIR      61  54  77 NE13G20   29.74R
MANNING        MOCLDY    59  50  72 N7        29.72R
COLUMBIA       MOCLDY    60  51  72 NE6       29.73R
SUMTER         MOCLDY    57  52  82 NE10      29.72R
FLORENCE       CLOUDY    55  50  83 NE8       29.75R
MYRTLE BEACH   LGT RAIN  57  52  82 N17       29.73R
N MYRTLE BEACH CLOUDY    55  52  89 N10       29.71F

$$

GAZ063-065-086>088-099>101-113>116-118-119-134>141-150-270200-
...SOUTHEAST GEORGIA...

CITY           SKY/WX    TMP DP  RH WIND       PRES   REMARKS
SAVANNAH ARPT  MOCLDY    76  55  48 W5        29.65R
HUNTER AAF     MOCLDY    74  58  58 W6        29.63R
FORT STEWART   MOCLDY    79  56  44 W5        29.64R
STATESBORO       N/A     76  62  61 CALM      29.65R
SYLVANIA       PTCLDY    75  64  67 CALM      29.66R
CLAXTON        FAIR      72  63  73 CALM      29.66R

...CSRA...CENTRAL AND FAR SOUTHEAST GEORGIA...

CITY           SKY/WX    TMP DP  RH WIND       PRES   REMARKS
THOMSON        MOCLDY    73  69  87 CALM      29.71R
AUGUSTA-BUSH   CLOUDY    73  61  65 NE16      29.65R
AUGUSTA-DANIEL CLOUDY    72  60  66 N12       29.67R
SWAINSBORO     NOT AVBL
VIDALIA        PTCLDY    77  61  57 W3        29.67R
EASTMAN        FAIR      76  60  56 W3        29.70R
HAZLEHURST     FAIR      76  62  62 CALM      29.67S
ALMA           CLOUDY    79  63  57 W3        29.68R
WAYCROSS       CLOUDY    80  66  61 CALM      29.68R
JESUP          FAIR      79  66  65 W5        29.68R
BAXLEY         FAIR      79  64  61 CALM      29.67S
BRUNSWICK      PTCLDY    79  59  50 W5        29.68R
SAINT SIMONS   PTCLDY    81  59  47 W6        29.67R

$$

SCZ027-028-034-036>038-045-046-048>050-GAZ119-141-270200-
...LAKE AND SUPPLEMENTAL COASTAL OBSERVATIONS...

STATION/POSITION TIME  TEMP    WIND        PRES    WAVE   SWELL
                       AIR SEA DIR/SP/G            HT/PER HT/PER/DIR
                 (UTC) (F)     (DEG/KT/KT) (MB)    (FT/S) (FT/S/D)
UPR LAKE MARION  NOT AVBL
WINYAH BAY       NOT AVBL
LAKE MURRAY      0000   60      40/  5/ 10 1005.4R
ACE BASIN NERRS  NOT AVBL
FORT PULASKI     0012   81 71  240/  6/  9 1004.0R
SAPELO ISLAND    NOT AVBL

$$

ANZ835-935-AMZ111-154-330-350-352-354-370-450-454-472-270200-
...C-MAN AND BUOY OBSERVATIONS...

STATION/POSITION TIME  TEMP    WIND        PRES    WAVE   SWELL
                       AIR SEA DIR/SP/G            HT/PER HT/PER/DIR
                 (UTC) (F)     (DEG/KT/KT) (MB)    (FT/S) (FT/S/D)
BUOY 41004       0050   74 72  280/ 14/ 19 1002.8R   4/ 6   2/ 7
BUOY 41008       0050   76 72  280/  8/  8 1004.5R   2/ 5   2/140/ 5
FOLLY BEACH CMAN 0100   67      40/ 19/ 22 1004.5R
CAPERS NEARSHORE 0008   67      50/ 21/ 31 1003.8R
FRIPP NEARSHORE  0000   75     270/  8/ 10 1003.0R


STATION/POSITION TIME  TEMP    WIND        PRES    WAVE   SWELL
                       AIR SEA DIR/SP/G            HT/PER HT/PER/DIR
                 (UTC) (F)     (DEG/KT/KT) (MB)    (FT/S) (FT/S/D)
5E ST. MARYS GA  0021      71                N/A     1/ 5
FRYING PAN BUOY  0050   62 71   30/ 17/ 23 1005.5R   4/ 8   2/200/ 8
BUOY 41025       0050   56 78  360/ 17/ 21 1005.2R   7/ 9   5/ 60/ 9
CAPE LOOKOUT NC  0000   54     360/ 14/ 16 1005.5R
BUOY 41002       0050   70 71  340/ 14/ 16 1004.4R   8/ 8   7/240/ 8
BUOY 41010       0020   79 78  250/  6/  6 1006.8R
ST AUGUSTINE FL  0100   81 68  230/  9/ 13 1006.3R


$$



USA.gov is the U.S. government's official web portal to all federal, state and local government web resources and services.